TimeMDT,TemperatureF,Dew PointF,Humidity,Sea Level PressureIn,VisibilityMPH,Wind Direction,Wind SpeedMPH,Gust SpeedMPH,PrecipitationIn,Events,Conditions,WindDirDegrees,DateUTC
12:53 AM,34.0,26.1,73,29.88,10.0,West,8.1,-,N/A,,Partly Cloudy,270,2011-11-01 06:53:00
1:53 AM,39.0,27.0,62,29.84,10.0,WSW,9.2,-,N/A,,Overcast,250,2011-11-01 07:53:00
2:53 AM,34.0,25.0,70,29.86,10.0,SSW,4.6,-,N/A,,Clear,210,2011-11-01 08:53:00
3:53 AM,33.1,25.0,72,29.86,10.0,East,4.6,-,N/A,,Mostly Cloudy,100,2011-11-01 09:53:00
4:53 AM,36.0,26.1,67,29.83,10.0,SE,6.9,-,N/A,,Overcast,130,2011-11-01 10:53:00
5:53 AM,30.2,26.6,86,29.99,10.0,SE,3.5,-,N/A,,Mostly Cloudy,140,2011-11-01 11:53:00
6:53 AM,33.8,26.6,75,29.97,10.0,North,8.1,-,N/A,,Overcast,350,2011-11-01 12:53:00
7:53 AM,30.9,28.0,89,29.90,10.0,NNW,5.8,-,N/A,,Scattered Clouds,340,2011-11-01 13:53:00
8:53 AM,33.1,28.0,82,29.90,10.0,SSE,26.5,32.2,N/A,,Scattered Clouds,150,2011-11-01 14:53:00
9:27 AM,32.0,28.4,87,29.97,10.0,SE,23.0,33.4,N/A,,Mostly Cloudy,140,2011-11-01 15:27:00
9:44 AM,30.2,28.4,93,29.97,10.0,SE,26.5,32.2,N/A,,Overcast,140,2011-11-01 15:44:00
9:53 AM,32.0,28.9,88,29.91,10.0,SE,26.5,33.4,N/A,,Overcast,140,2011-11-01 15:53:00
10:53 AM,33.1,28.9,85,29.88,10.0,SSE,24.2,35.7,N/A,,Overcast,150,2011-11-01 16:53:00
11:53 AM,33.8,28.4,81,29.92,10.0,SE,26.5,36.8,N/A,,Mostly Cloudy,140,2011-11-01 17:53:00
12:16 PM,33.8,26.6,75,29.93,10.0,SSE,27.6,33.4,N/A,,Mostly Cloudy,150,2011-11-01 18:16:00
12:53 PM,34.0,28.0,79,29.88,10.0,SE,21.9,-,N/A,,Overcast,140,2011-11-01 18:53:00
1:53 PM,36.0,28.0,73,29.80,10.0,SE,18.4,28.8,N/A,,Scattered Clouds,140,2011-11-01 19:53:00
2:53 PM,37.0,28.0,70,29.80,10.0,SSE,18.4,-,N/A,,Mostly Cloudy,150,2011-11-01 20:53:00
3:53 PM,35.1,27.0,72,29.86,10.0,SE,15.0,-,0.00,,Overcast,130,2011-11-01 21:53:00
4:28 PM,33.8,28.4,81,29.91,3.0,SE,11.5,-,0.00,Snow,Light Snow,140,2011-11-01 22:28:00
4:34 PM,33.8,28.4,81,29.92,1.8,SE,15.0,20.7,0.00,Snow,Light Snow,130,2011-11-01 22:34:00
4:46 PM,33.8,26.6,75,29.92,3.0,SE,15.0,23.0,0.00,Snow,Light Snow,140,2011-11-01 22:46:00
4:53 PM,33.1,28.0,82,29.88,1.8,SE,19.6,24.2,0.00,Snow,Light Snow,130,2011-11-01 22:53:00
5:07 PM,32.0,28.4,87,29.93,0.5,SE,15.0,-,0.00,Fog-Snow,Snow,130,2011-11-01 23:07:00
5:21 PM,30.2,28.4,93,29.96,0.8,Variable,4.6,-,0.00,Snow,Light Snow,0,2011-11-01 23:21:00
5:28 PM,30.2,30.2,100,29.97,0.5,North,11.5,-,0.00,Fog-Snow,Snow,10,2011-11-01 23:28:00
5:35 PM,28.4,26.6,93,29.97,0.2,NNE,16.1,21.9,0.01,Fog-Snow,Heavy Snow,30,2011-11-01 23:35:00
5:53 PM,26.1,24.1,92,30.01,0.2,NNE,15.0,-,0.03,Fog-Snow,Heavy Snow,20,2011-11-01 23:53:00
6:17 PM,24.8,23.0,93,30.02,0.2,North,10.4,-,0.03,Fog-Snow,Heavy Snow,10,2011-11-02 00:17:00
6:53 PM,24.1,21.9,91,30.06,0.5,NNE,9.2,-,0.08,Fog-Snow,Snow,30,2011-11-02 00:53:00
7:08 PM,24.8,21.2,86,30.05,0.8,North,11.5,-,0.01,Snow,Light Snow,10,2011-11-02 01:08:00
7:53 PM,23.0,21.9,96,30.12,0.8,North,12.7,-,0.02,Snow,Light Snow,10,2011-11-02 01:53:00
8:00 PM,23.0,21.2,93,30.07,1.0,North,9.2,-,0.00,Snow,Light Snow,10,2011-11-02 02:00:00
8:53 PM,23.0,19.9,88,30.12,1.0,NNE,12.7,-,0.01,Snow,Light Snow,30,2011-11-02 02:53:00
9:26 PM,23.0,19.4,86,30.11,2.0,NE,15.0,21.9,0.00,Snow,Light Snow,40,2011-11-02 03:26:00
9:38 PM,23.0,19.4,86,30.12,4.0,NE,11.5,20.7,0.00,Snow,Light Snow,40,2011-11-02 03:38:00
9:51 PM,21.2,19.4,93,30.12,1.8,NNE,12.7,-,N/A,Snow,Light Snow,30,2011-11-02 03:51:00
9:53 PM,21.2,19.4,93,30.12,1.5,NNE,15.0,-,N/A,Snow,Light Snow,30,2011-11-02 03:53:00
10:02 PM,21.2,19.4,93,30.14,1.0,NE,10.4,-,0.00,Snow,Light Snow,40,2011-11-02 04:02:00
10:16 PM,21.2,19.4,93,30.13,0.8,NNE,15.0,-,0.01,Snow,Light Snow,30,2011-11-02 04:16:00
10:37 PM,21.2,19.4,93,30.14,0.8,NNE,12.7,20.7,0.01,Snow,Light Snow,20,2011-11-02 04:37:00
10:45 PM,21.2,19.4,93,30.13,1.0,NNE,13.8,20.7,0.01,Snow,Light Snow,30,2011-11-02 04:45:00
10:53 PM,21.0,19.0,92,30.19,1.0,NNE,13.8,-,0.01,Snow,Light Snow,30,2011-11-02 04:53:00
11:15 PM,21.2,19.4,93,30.16,0.8,NNE,5.8,-,0.01,Snow,Light Snow,20,2011-11-02 05:15:00
11:20 PM,21.2,19.4,93,30.17,0.5,North,5.8,-,0.01,Fog-Snow,Snow,10,2011-11-02 05:20:00
11:28 PM,21.2,19.4,93,30.18,0.8,North,6.9,-,0.01,Snow,Light Snow,360,2011-11-02 05:28:00
11:40 PM,21.2,19.4,93,30.17,1.0,North,6.9,-,0.02,Snow,Light Snow,360,2011-11-02 05:40:00
11:53 PM,21.0,19.0,92,30.19,1.0,North,10.4,-,0.02,Snow,Light Snow,10,2011-11-02 05:53:00